Starlink 6216

operational
NORAD ID: 56893 Int'l Des: 2023-083 Owner: SPXS Country: US Constellation: starlink
LEOCIRCULAR

Starlink 6216について

説明を読み込み中...

リアルタイム位置

3D地球を読み込み中...

次回通過

高度履歴

Altitude vs Time

uPlot chart will show altitude changes over time

軌道要素

1 56893U 23083T 26034.93324068 .00000272 00000-0 35241-4 0 9997
2 56893 43.0035 265.1078 0001128 268.1528 91.9185 15.02536198146713
Epoch: Feb 3, 2026 • Age: 31 hours

現在のステータス

高度 562.5 km
速度 7.59 km/s
衛星直下点 41.16°N, 115.97°E
打ち上げ日 Jun 12, 2023
運用期間 2.6 years
タイプ internet

技術仕様

分類 Payload
質量 305.00 kg
乾燥質量 290.00 kg
総質量 305.00 kg
長さ 0.20 m
直径 2.80 m
スパン 9.00 m
形状 Box + pan
製造者 SPXS
バスタイプ Starlink
フェーズステータス In Orbit
所有者/国 SPXS/US

大規模コンステレーション

Loading constellations...